Satellite: CO-58
Catalog number: 28895
Epoch time:      07129.73103329
Element set:    0723
Inclination:      098.1381 deg
RA of node:       027.3281 deg
Eccentricity:    0.0016847
Arg of perigee:   231.4836 deg
Mean anomaly:     128.4851 deg
Mean motion:   14.59546685 rev/day
Decay rate:       1.11e-06 rev/day^2
Epoch rev:           08148
Checksum:              326

Satellite: NCUBE2
Catalog number: 28897
Epoch time:      07130.70122736
Element set:     248
Inclination:      098.1349 deg
RA of node:       028.2390 deg
Eccentricity:    0.0016204
Arg of perigee:   230.2817 deg
Mean anomaly:     129.6961 deg
Mean motion:   14.59709044 rev/day
Decay rate:       1.80e-06 rev/day^2
Epoch rev:            7390
Checksum:              297

Satellite: NMARS
Catalog number: 29662
Epoch time:      07126.39603970
Element set:     263
Inclination:      051.6121 deg
RA of node:       302.3682 deg
Eccentricity:    0.0004459
Arg of perigee:   252.1654 deg
Mean anomaly:     110.7411 deg
Mean motion:   16.47981436 rev/day
Decay rate:   7.031946e-02 rev/day^2
Epoch rev:            2165
Checksum:              289

Satellite: FCAL
Catalog number: 29667
Epoch time:      07130.87437127
Element set:     134
Inclination:      051.6360 deg
RA of node:       289.7909 deg
Eccentricity:    0.0015064
Arg of perigee:   197.2946 deg
Mean anomaly:     162.7547 deg
Mean motion:   15.86865503 rev/day
Decay rate:     2.0884e-04 rev/day^2
Epoch rev:            2207
Checksum:              326

Satellite: FALCON
Catalog number: 30776
Epoch time:      07129.98407340
Element set:    0056
Inclination:      035.4328 deg
RA of node:       084.2490 deg
Eccentricity:    0.0000193
Arg of perigee:   171.4620 deg
Mean anomaly:     188.6098 deg
Mean motion:   15.02697033 rev/day
Decay rate:       2.80e-06 rev/day^2
Epoch rev:           00930
Checksum:              281

Satellite: MAST
Catalog number: 31126
Epoch time:      07130.73613529
Element set:      28
Inclination:      098.0826 deg
RA of node:       205.1622 deg
Eccentricity:    0.0095742
Arg of perigee:   141.0493 deg
Mean anomaly:     219.7637 deg
Mean motion:   14.53337576 rev/day
Decay rate:       3.95e-06 rev/day^2
Epoch rev:             341
Checksum:              283

Satellite: CAPE1
Catalog number: 31130
Epoch time:      07129.93314808
Element set:    0022
Inclination:      098.0821 deg
RA of node:       204.3316 deg
Eccentricity:    0.0104149
Arg of perigee:   143.7103 deg
Mean anomaly:     217.1228 deg
Mean motion:   14.51847871 rev/day
Decay rate:       2.21e-06 rev/day^2
Epoch rev:           00306
Checksum:              245

/EX





More information about the Keps mailing list